EW7074 Weather Reports


Display with metric or nautical units.
time (UTC)temp
F
wind
direction
speed
MPH
gust
MPH
rain 1hr
in
rain 24hr
in
rain mn
in
humidity
%
barometer
mb
20260906002319 58 164 0.0 0.0 0.00 0.00 0.00 77 1020.3
20260906001816 58 214 0.0 2.0 0.00 0.00 0.00 77 1020.0
20260906001314 58 222 0.0 2.0 0.00 0.00 0.00 77 1019.8
20260906001039 57 206 0.0 3.0 0.00 0.00 0.00 78 1020.0
20260906000308 57 175 0.0 3.0 0.00 0.00 0.00 79 1019.9
20260905235808 57 90 0.0 1.0 0.00 0.00 0.00 79 1019.4
20260905235307 57 99 0.0 1.0 0.00 0.00 0.00 79 1019.4
20260905234806 58 90 0.0 1.0 0.00 0.00 0.00 78 1019.3
20260905234300 58 89 0.0 1.0 0.00 0.00 0.00 78 1019.2
20260905233756 58 99 0.0 2.0 0.00 0.00 0.00 78 1019.1
20260905233254 58 89 0.0 2.0 0.00 0.00 0.00 78 1019.0
20260905232753 58 121 0.0 1.0 0.00 0.00 0.00 77 1018.9
20260905232247 58 92 0.0 1.0 0.00 0.00 0.00 77 1018.9
20260905231736 58 80 0.0 1.0 0.00 0.00 0.00 76 1018.8
20260905231232 58 99 0.0 1.0 0.00 0.00 0.00 76 1018.8
20260905230956 58 92 0.0 1.0 0.00 0.00 0.00 76 1018.7
20260905230214 58 93 0.0 1.0 0.00 0.00 0.00 75 1018.5
20260905225705 59 91 0.0 1.0 0.00 0.00 0.00 75 1018.5
20260905225153 59 118 0.0 1.0 0.00 0.00 0.00 74 1018.5
20260905224644 59 77 0.0 1.0 0.00 0.00 0.00 74 1018.5
20260905224132 59 96 0.0 1.0 0.00 0.00 0.00 73 1018.4
20260905223624 59 93 0.0 1.0 0.00 0.00 0.00 73 1018.4
20260905223118 60 96 0.0 1.0 0.00 0.00 0.00 73 1018.4
20260905222616 60 99 0.0 1.0 0.00 0.00 0.00 72 1018.3
20260905222110 60 125 0.0 1.0 0.00 0.00 0.00 71 1018.1
20260905221603 60 101 0.0 1.0 0.00 0.00 0.00 71 1018.2
20260905221055 60 100 0.0 1.0 0.00 0.00 0.00 71 1018.1
20260905220031 61 100 0.0 1.0 0.00 0.00 0.00 70 1018.0
20260905215514 61 99 0.0 1.0 0.00 0.00 0.00 68 1018.1
20260905215005 62 171 0.0 0.0 0.00 0.00 0.00 67 1018.0
20260905214954 62 196 0.0 0.0 0.00 0.00 0.00 67 1018.0
20260905213941 63 196 0.0 0.0 0.00 0.00 0.00 65 1017.9
20260905213426 63 248 0.0 0.0 0.00 0.00 0.00 64 1017.8
20260905213145 63 248 0.0 0.0 0.00 0.00 0.00 63 1017.8
20260905212403 63 248 0.0 0.0 0.00 0.00 0.00 62 1017.6
20260905211853 64 248 0.0 0.0 0.00 0.00 0.00 61 1017.5
20260905211344 64 248 0.0 0.0 0.00 0.00 0.00 61 1017.5
20260905210834 64 248 0.0 1.0 0.00 0.00 0.00 59 1017.4
20260905210325 64 248 0.0 1.0 0.00 0.00 0.00 59 1017.4
20260905205804 64 248 0.0 1.0 0.00 0.00 0.00 57 1017.3
20260905205252 64 248 0.0 1.0 0.00 0.00 0.00 57 1017.4
20260905204744 64 254 0.0 1.0 0.00 0.00 0.00 57 1017.3
20260905204226 64 247 0.0 1.0 0.00 0.00 0.00 56 1017.3
20260905203715 65 246 0.0 1.0 0.00 0.00 0.00 55 1017.4
20260905203204 65 249 0.0 2.0 0.00 0.00 0.00 55 1017.2
20260905202647 65 229 0.0 2.0 0.00 0.00 0.00 55 1017.1
20260905202408 65 247 0.0 2.0 0.00 0.00 0.00 54 1017.0
20260905201626 65 228 1.0 3.0 0.00 0.00 0.00 54 1017.1
20260905201117 65 216 1.0 3.0 0.00 0.00 0.00 53 1017.0
20260905200603 65 224 1.0 2.0 0.00 0.00 0.00 52 1017.0
20260905200052 65 220 0.0 2.0 0.00 0.00 0.00 53 1016.9
20260905195539 65 259 1.0 2.0 0.00 0.00 0.00 52 1016.7
20260905195031 65 238 2.0 10.0 0.00 0.00 0.00 52 1016.8
20260905194749 65 218 4.0 10.0 0.00 0.00 0.00 52 1016.7
20260905194003 65 239 4.0 10.0 0.00 0.00 0.00 51 1016.7
20260905193449 65 226 3.0 10.0 0.00 0.00 0.00 50 1016.6
20260905192937 65 232 3.0 10.0 0.00 0.00 0.00 50 1016.6
20260905192436 65 252 3.0 10.0 0.00 0.00 0.00 51 1016.4
20260905191923 65 221 3.0 10.0 0.00 0.00 0.00 52 1016.4
20260905191423 66 270 3.0 11.0 0.00 0.00 0.00 53 1016.3
20260905191413 66 251 2.0 10.0 0.00 0.00 0.00 52 1016.4
20260905185913 65 239 6.0 13.0 0.00 0.00 0.00 52 1016.0
20260905185410 65 214 7.0 13.0 0.00 0.00 0.00 51 1016.0
20260905184909 66 229 3.0 11.0 0.00 0.00 0.00 51 1015.9
20260905184409 66 226 1.0 10.0 0.00 0.00 0.00 52 1016.0
20260905183909 66 234 5.0 10.0 0.00 0.00 0.00 52 1016.0
20260905183637 66 241 5.0 10.0 0.00 0.00 0.00 52 1015.9
20260905182907 67 223 3.0 10.0 0.00 0.00 0.00 51 1015.9
20260905182405 67 202 1.0 9.0 0.00 0.00 0.00 51 1016.0
20260905181903 67 242 2.0 9.0 0.00 0.00 0.00 51 1015.9
20260905181633 66 238 2.0 9.0 0.00 0.00 0.00 51 1015.9
20260905181135 66 259 1.0 8.0 0.00 0.00 0.00 52 1016.0
20260905180403 66 250 1.0 6.0 0.00 0.00 0.00 53 1016.0
20260905175852 66 258 1.0 6.0 0.00 0.00 0.00 51 1016.0
20260905175351 67 272 2.0 11.0 0.00 0.00 0.00 52 1015.9
20260905174851 67 272 2.0 11.0 0.00 0.00 0.00 53 1016.0
20260905174349 67 245 1.0 2.0 0.00 0.00 0.00 54 1016.0
20260905173847 67 197 1.0 9.0 0.00 0.00 0.00 54 1016.1
20260905173347 66 285 2.0 10.0 0.00 0.00 0.00 54 1016.1
20260905172845 67 232 0.0 10.0 0.00 0.00 0.00 57 1016.2
20260905172616 66 254 1.0 7.0 0.00 0.00 0.00 57 1016.2
20260905172117 65 289 2.0 9.0 0.00 0.00 0.00 57 1016.3
20260905171346 65 234 2.0 9.0 0.00 0.00 0.00 56 1016.3
20260905171115 66 217 1.0 6.0 0.00 0.00 0.00 55 1016.4
20260905170342 65 247 1.0 9.0 0.00 0.00 0.00 56 1016.4
20260905170113 65 209 2.0 10.0 0.00 0.00 0.00 58 1016.6
20260905165335 65 175 2.0 10.0 0.00 0.00 0.00 59 1016.6
20260905164836 65 229 1.0 8.0 0.00 0.00 0.00 61 1016.7
20260905164334 65 257 0.0 2.0 0.00 0.00 0.00 62 1016.8
20260905164105 65 243 0.0 2.0 0.00 0.00 0.00 63 1016.8
20260905163601 65 206 0.0 2.0 0.00 0.00 0.00 63 1016.8
20260905162831 65 225 0.0 7.0 0.00 0.00 0.00 61 1016.8
20260905162331 65 223 1.0 7.0 0.00 0.00 0.00 61 1016.7
20260905161830 64 215 3.0 9.0 0.00 0.00 0.00 61 1016.7
20260905161328 64 218 2.0 9.0 0.00 0.00 0.00 60 1016.8
20260905161322 65 225 0.0 5.0 0.00 0.00 0.00 62 1016.8
20260905160547 64 232 1.0 2.0 0.00 0.00 0.00 63 1016.9
20260905155817 64 270 1.0 9.0 0.00 0.00 0.00 65 1016.8
20260905155313 64 208 1.0 9.0 0.00 0.00 0.00 64 1016.8
20260905154255 64 244 1.0 9.0 0.00 0.00 0.00 66 1017.0
20260905153752 64 185 3.0 9.0 0.00 0.00 0.00 68 1017.1
20260905153243 63 262 4.0 10.0 0.00 0.00 0.00 66 1017.0
20260905152743 63 213 3.0 10.0 0.00 0.00 0.00 65 1017.2
20260905152514 63 210 1.0 7.0 0.00 0.00 0.00 66 1017.4
20260905151742 63 245 1.0 7.0 0.00 0.00 0.00 68 1017.5
20260905151243 63 170 2.0 5.0 0.00 0.00 0.00 70 1017.5
20260905150737 63 210 2.0 5.0 0.00 0.00 0.00 70 1017.7
20260905150233 63 219 2.0 5.0 0.00 0.00 0.00 70 1017.7
20260905145959 63 245 1.0 4.0 0.00 0.00 0.00 69 1017.6
20260905145453 63 213 1.0 5.0 0.00 0.00 0.00 68 1017.6
20260905144719 63 257 1.0 5.0 0.00 0.00 0.00 71 1017.7
20260905144218 63 238 1.0 5.0 0.00 0.00 0.00 73 1017.7
20260905143711 62 238 2.0 6.0 0.00 0.00 0.00 72 1017.9
20260905143209 62 224 1.0 6.0 0.00 0.00 0.00 72 1017.8
20260905142702 62 137 1.0 3.0 0.00 0.00 0.00 74 1017.8
20260905142153 61 223 1.0 4.0 0.00 0.00 0.00 75 1017.9
20260905141923 62 237 1.0 4.0 0.00 0.00 0.00 74 1018.0
20260905141152 62 247 0.0 3.0 0.00 0.00 0.00 76 1018.0
20260905140645 61 288 1.0 5.0 0.00 0.00 0.00 76 1018.0
20260905140136 61 243 1.0 5.0 0.00 0.00 0.00 76 1018.1
20260905135633 62 248 1.0 3.0 0.00 0.00 0.00 75 1018.1
20260905135129 62 208 1.0 5.0 0.00 0.00 0.00 75 1018.2
20260905134618 61 311 0.0 3.0 0.00 0.00 0.00 76 1018.2
20260905134339 61 149 0.0 2.0 0.00 0.00 0.00 77 1018.2
20260905133556 60 219 0.0 2.0 0.00 0.00 0.00 78 1018.2
20260905133048 60 226 0.0 2.0 0.00 0.00 0.00 79 1018.2
20260905132537 60 226 0.0 1.0 0.00 0.00 0.00 80 1018.2
20260905132023 60 226 0.0 2.0 0.00 0.00 0.00 82 1018.3
20260905131512 60 226 0.0 2.0 0.00 0.00 0.00 83 1018.3
20260905131003 59 253 0.0 2.0 0.00 0.00 0.00 86 1018.2
20260905130450 59 251 0.0 1.0 0.00 0.00 0.00 87 1018.3
20260905125940 58 254 0.0 1.0 0.00 0.00 0.00 88 1018.2
20260905125424 58 242 0.0 1.0 0.00 0.00 0.00 88 1018.2
20260905124405 57 251 0.0 0.0 0.00 0.00 0.00 90 1018.2
20260905123852 57 249 0.0 0.0 0.00 0.00 0.00 90 1018.3
20260905123339 57 249 0.0 0.0 0.00 0.00 0.00 90 1018.3
20260905122833 57 249 0.0 0.0 0.00 0.00 0.00 90 1018.4
20260905122549 56 249 0.0 0.0 0.00 0.00 0.00 90 1018.2
20260905121809 56 250 0.0 0.0 0.00 0.00 0.00 90 1018.3
20260905121256 56 250 0.0 0.0 0.00 0.00 0.00 90 1018.3
20260905121018 56 250 0.0 0.0 0.00 0.00 0.00 91 1018.3
20260905120235 56 257 0.0 0.0 0.00 0.00 0.00 91 1018.3
20260905115724 56 257 0.0 0.0 0.00 0.00 0.00 91 1018.3
20260905115216 56 257 0.0 0.0 0.00 0.00 0.00 91 1018.2
20260905114705 55 256 0.0 0.0 0.00 0.00 0.00 91 1018.1
20260905114153 55 256 0.0 0.0 0.00 0.00 0.00 91 1018.0
20260905113643 55 256 0.0 0.0 0.00 0.00 0.00 91 1018.0
20260905113133 55 256 0.0 0.0 0.00 0.00 0.00 91 1017.9
20260905112623 55 256 0.0 0.0 0.00 0.00 0.00 91 1017.9
20260905112342 55 256 0.0 0.0 0.00 0.00 0.00 91 1017.9
20260905111830 54 256 0.0 0.0 0.00 0.00 0.00 91 1017.8
20260905111320 54 256 0.0 0.0 0.00 0.00 0.00 91 1017.8
20260905110539 54 247 0.0 0.0 0.00 0.00 0.00 91 1017.7
20260905110029 54 247 0.0 0.0 0.00 0.00 0.00 91 1017.6
20260905105518 54 247 0.0 0.0 0.00 0.00 0.00 91 1017.4
20260905105007 54 168 0.0 0.0 0.00 0.00 0.00 91 1017.5
20260905104457 53 168 0.0 0.0 0.00 0.00 0.00 91 1017.5
20260905103958 53 166 0.0 0.0 0.00 0.00 0.00 91 1017.5
20260905103457 53 166 0.0 0.0 0.00 0.00 0.00 91 1017.4
20260905103228 53 166 0.0 0.0 0.00 0.00 0.00 91 1017.4
20260905102456 53 166 0.0 0.0 0.00 0.00 0.00 91 1017.3
20260905102228 53 166 0.0 0.0 0.00 0.00 0.00 91 1017.2
20260905101454 53 166 0.0 0.0 0.00 0.00 0.00 91 1017.2
20260905100952 53 166 0.0 0.0 0.00 0.00 0.00 91 1017.2
20260905100449 53 166 0.0 0.0 0.00 0.00 0.00 91 1017.2
20260905095955 53 166 0.0 0.0 0.00 0.00 0.00 91 1017.0
20260905095948 53 166 0.0 0.0 0.00 0.00 0.00 91 1017.1
20260905094946 53 165 0.0 0.0 0.00 0.00 0.00 91 1016.9
20260905094446 53 166 0.0 0.0 0.00 0.00 0.00 91 1016.9
20260905093942 53 166 0.0 0.0 0.00 0.00 0.00 91 1016.9
20260905093440 53 166 0.0 0.0 0.00 0.00 0.00 91 1016.9
20260905092938 53 166 0.0 0.0 0.00 0.00 0.00 91 1016.8
20260905092438 53 166 0.0 0.0 0.00 0.00 0.00 91 1016.6
20260905091938 53 166 0.0 0.0 0.00 0.00 0.00 91 1016.7
20260905091437 53 166 0.0 0.0 0.00 0.00 0.00 91 1016.7
20260905090938 53 166 0.0 0.0 0.00 0.00 0.00 91 1016.6
20260905090437 53 166 0.0 0.0 0.00 0.00 0.00 91 1016.4
20260905085938 53 166 0.0 0.0 0.00 0.00 0.00 91 1016.4
20260905085437 53 166 0.0 0.0 0.00 0.00 0.00 90 1016.3
20260905085209 53 166 0.0 0.0 0.00 0.00 0.00 90 1016.3
20260905084438 53 166 0.0 0.0 0.00 0.00 0.00 90 1016.2
20260905083936 53 158 0.0 0.0 0.00 0.00 0.00 90 1016.3
20260905083434 53 158 0.0 0.0 0.00 0.00 0.00 90 1016.2
20260905082935 53 158 0.0 0.0 0.00 0.00 0.00 90 1016.2
20260905082432 53 158 0.0 0.0 0.00 0.00 0.00 90 1016.1
20260905081931 53 158 0.0 0.0 0.00 0.00 0.00 90 1016.1
20260905081703 53 157 0.0 0.0 0.00 0.00 0.00 90 1016.0
20260905081204 53 158 0.0 0.0 0.00 0.00 0.00 90 1015.9
20260905080701 53 158 0.0 0.0 0.00 0.00 0.00 90 1016.0
20260905075929 53 158 0.0 0.0 0.00 0.00 0.00 90 1015.9
20260905075656 53 143 0.0 0.0 0.00 0.00 0.00 90 1016.0
20260905074924 53 143 0.0 0.0 0.00 0.00 0.00 90 1015.9
20260905074422 53 143 0.0 0.0 0.00 0.00 0.00 90 1016.0
20260905074153 53 143 0.0 0.0 0.00 0.00 0.00 90 1015.8
20260905073411 53 143 0.0 0.0 0.00 0.00 0.00 90 1015.8
20260905072910 53 89 0.0 0.0 0.00 0.00 0.00 90 1015.8
20260905072409 53 89 0.0 0.0 0.00 0.00 0.00 90 1015.8
20260905071903 53 89 0.0 0.0 0.00 0.00 0.00 90 1015.8
20260905071357 53 89 0.0 0.0 0.00 0.00 0.00 90 1015.9
20260905070855 53 89 0.0 0.0 0.00 0.00 0.00 90 1015.8
20260905070348 53 89 0.0 0.0 0.00 0.00 0.00 90 1015.7
20260905065848 53 89 0.0 0.0 0.00 0.00 0.00 90 1015.8
20260905065338 53 89 0.0 0.0 0.00 0.00 0.00 90 1015.8
20260905064825 52 89 0.0 0.0 0.00 0.00 0.00 90 1015.8
20260905064319 52 89 0.0 0.0 0.00 0.00 0.00 90 1015.7
20260905063821 52 88 0.0 0.0 0.00 0.00 0.00 90 1015.8
20260905063311 52 87 0.0 0.0 0.00 0.00 0.00 90 1015.7
20260905062806 52 87 0.0 0.0 0.00 0.00 0.00 90 1015.7
20260905062306 52 87 0.0 0.0 0.00 0.00 0.00 90 1015.7
20260905062256 52 87 0.0 0.0 0.00 0.00 0.00 90 1015.7
20260905061516 52 87 0.0 0.0 0.00 0.00 0.00 90 1015.8
20260905060744 52 0.0 0.0 0.00 0.00 0.00 90
20260905055819 52 87 0.0 0.0 0.00 0.00 0.00 90 1015.8
20260905055543 52 87 0.0 0.0 0.00 0.00 0.00 90 1015.8
20260905054810 52 87 0.0 0.0 0.00 0.00 0.00 90 1016.0
20260905054527 52 87 0.0 0.0 0.00 0.00 0.00 90 1016.0
20260905053742 53 0.0 0.0 0.00 0.00 0.00 89
20260905052319 53 0.0 0.0 0.00 0.00 0.00 89
20260905051345 53 87 0.0 0.0 0.00 0.00 0.00 89 1015.8
20260905050834 53 0.0 0.0 0.00 0.00 0.00 89
20260905050040 53 87 0.0 0.0 0.00 0.00 0.00 88 1015.8
20260905045301 53 87 0.0 0.0 0.00 0.00 0.00 88 1015.9
20260905044310 53 87 0.0 0.0 0.00 0.00 0.00 88 1015.9
20260905044040 54 87 0.0 0.0 0.00 0.00 0.00 87 1016.0
20260905042909 54 87 0.0 0.0 0.00 0.00 0.00 87 1016.0
20260905042356 54 87 0.0 0.0 0.00 0.00 0.00 87 1015.9
20260905041847 54 87 0.0 0.0 0.00 0.00 0.00 87 1016.1
20260905041333 54 87 0.0 0.0 0.00 0.00 0.00 87 1016.0
20260905040819 55 0.0 0.0 0.00 0.00 0.00 86
20260905035753 55 87 0.0 0.0 0.00 0.00 0.00 86 1015.8
20260905035235 55 87 0.0 0.0 0.00 0.00 0.00 85 1015.9
20260905034235 55 87 0.0 0.0 0.00 0.00 0.00 85 1015.9
20260905033731 55 87 0.0 0.0 0.00 0.00 0.00 85 1015.9
20260905032727 55 87 0.0 0.0 0.00 0.00 0.00 85 1015.7
20260905032456 56 87 0.0 0.0 0.00 0.00 0.00 85 1015.8
20260905031329 56 87 0.0 0.0 0.00 0.00 0.00 85 1016.0
20260905030828 56 0.0 0.0 0.00 0.00 0.00 85
20260905025819 56 87 0.0 0.0 0.00 0.00 0.00 85 1016.0
20260905025259 56 0.0 0.0 0.00 0.00 0.00 86
20260905024235 56 87 0.0 0.0 0.00 0.00 0.00 86 1015.8
20260905023728 56 87 0.0 0.0 0.00 0.00 0.00 86 1016.0
20260905022748 56 87 0.0 0.0 0.00 0.00 0.00 87 1015.9
20260905022512 56 82 0.0 0.0 0.00 0.00 0.00 87 1015.9
20260905021049 56 81 0.0 0.0 0.00 0.00 0.00 87 1015.8
20260905020552 56 0.0 0.0 0.00 0.00 0.00 87
20260905015808 56 0.0 0.0 0.00 0.00 0.00 86
20260905015801 56 80 0.0 0.0 0.00 0.00 0.00 87 1015.9
20260905014321 56 80 0.0 0.0 0.00 0.00 0.00 86 1015.9
20260905014315 57 0.0 0.0 0.00 0.00 0.00 84
20260905012821 57 88 0.0 0.0 0.00 0.00 0.00 84 1015.8
20260905012535 58 80 0.0 0.0 0.00 0.00 0.00 82 1015.8
20260905011305 58 85 1.0 1.0 0.00 0.00 0.00 82 1015.8
20260905010754 58 120 1.0 0.0 0.00 0.00 0.00 82 1015.7
20260905005805 59 118 1.0 1.0 0.00 0.00 0.00 82 1015.7
20260905005254 59 80 3.0 0.0 0.00 0.00 0.00 82 1015.8
20260905004254 59 102 2.0 9.0 0.00 0.00 0.00 82 1015.6
20260905003744 58 0.0 0.0 0.00 0.00 0.00 83
20260905002819 58 69 0.0 0.0 0.00 0.00 0.00 83 1015.2